Location: Noyers
(47.2770°N, 1.4032°E)
Time: 00:18:20
(UTC+00:00)

Cosmos 1812 Rocket - Pass Details

Date: 15 May 2026
Orbit: 599 x 624 km, 82.5° (Epoch: 9 June)

Event Time Altitude Azimuth Distance (km) Brightness Sun altitude
Exits shadow 23:39:59 59° 259° (WSW) 719 3.7 -23.6°
Maximum altitude 23:40:19 61° 282° (WNW) 707 3.8 -23.6°
Drops below altitude 10° 23:44:43 10° 3° (N) 2,003 7.3 -23.7°
Sets 23:46:59 0° 7° (N) 2,917 8.4 -23.7°
